| time (UTC) | temp F | wind direction | speed MPH | gust MPH | rain 1hr in | rain 24hr in | rain mn in | humidity % | barometer mb |
| 20260504184541 | 78 | 281 | 1.0 | 6.0 | 0.00 | 0.00 | 0.00 | 47 | 1001.3 |
| 20260504184014 | 78 | 195 | 0.0 | 6.0 | 0.00 | 0.00 | 0.00 | 49 | 1001.4 |
| 20260504183555 | 78 | 150 | 0.0 | 4.0 | 0.00 | 0.00 | 0.00 | 51 | 1001.3 |
| 20260504183031 | 78 | 144 | 0.0 | 4.0 | 0.00 | 0.00 | 0.00 | 51 | 1001.4 |
| 20260504182509 | 78 | 112 | 0.0 | 5.0 | 0.00 | 0.00 | 0.00 | 51 | 1001.4 |
| 20260504182048 | 78 | 153 | 2.0 | 5.0 | 0.00 | 0.00 | 0.00 | 50 | 1001.3 |
| 20260504181525 | 78 | 195 | 0.0 | 4.0 | 0.00 | 0.00 | 0.00 | 48 | 1001.4 |
| 20260504181106 | 78 | 127 | 1.0 | 3.0 | 0.00 | 0.00 | 0.00 | 52 | 1001.4 |
| 20260504180541 | 77 | 173 | 0.0 | 5.0 | 0.00 | 0.00 | 0.00 | 50 | 1001.5 |
| 20260504180020 | 77 | 183 | 0.0 | 5.0 | 0.00 | 0.00 | 0.00 | 49 | 1001.6 |
| 20260504175557 | 77 | 198 | 0.0 | 5.0 | 0.00 | 0.00 | 0.00 | 49 | 1001.5 |
| 20260504175036 | 77 | 157 | 0.0 | 3.0 | 0.00 | 0.00 | 0.00 | 49 | 1001.6 |
| 20260504174509 | 76 | 319 | 0.0 | 3.0 | 0.00 | 0.00 | 0.00 | 53 | 1001.7 |
| 20260504174052 | 76 | 51 | 0.0 | 2.0 | 0.00 | 0.00 | 0.00 | 52 | 1001.8 |
| 20260504173526 | 76 | 93 | 0.0 | 4.0 | 0.00 | 0.00 | 0.00 | 51 | 1001.9 |
| 20260504173008 | 76 | 93 | 1.0 | 5.0 | 0.00 | 0.00 | 0.00 | 50 | 1001.9 |
| 20260504172544 | 76 | 157 | 0.0 | 5.0 | 0.00 | 0.00 | 0.00 | 53 | 1001.9 |
| 20260504172020 | 75 | 314 | 0.0 | 4.0 | 0.00 | 0.00 | 0.00 | 52 | 1002.0 |
| 20260504171602 | 75 | 302 | 1.0 | 3.0 | 0.00 | 0.00 | 0.00 | 49 | 1002.0 |
| 20260504171036 | 75 | 259 | 0.0 | 2.0 | 0.00 | 0.00 | 0.00 | 52 | 1002.0 |
| 20260504170513 | 75 | 173 | 0.0 | 3.0 | 0.00 | 0.00 | 0.00 | 53 | 1002.0 |
| 20260504151043 | 70 | 278 | 0.0 | 4.0 | 0.00 | 0.00 | 0.00 | 57 | 1002.6 |
| 20260504150520 | 69 | 229 | 1.0 | 5.0 | 0.00 | 0.00 | 0.00 | 55 | 1002.6 |
| 20260504141015 | 67 | 164 | 0.0 | 5.0 | 0.00 | 0.00 | 0.00 | 59 | 1002.8 |
| 20260504140556 | 67 | 214 | 0.0 | 5.0 | 0.00 | 0.00 | 0.00 | 60 | 1002.8 |
| 20260504130527 | 64 | 155 | 0.0 | 2.0 | 0.00 | 0.00 | 0.00 | 62 | 1002.9 |
| 20260504110538 | 64 | 122 | 0.0 | 1.0 | 0.00 | 0.00 | 0.00 | 59 | 1003.5 |
| 20260504100510 | 65 | 235 | 0.0 | 3.0 | 0.00 | 0.00 | 0.00 | 56 | 1003.5 |
| 20260504081604 | 61 | 257 | 0.0 | 0.0 | 0.00 | 0.00 | 0.00 | 66 | 1004.4 |
| 20260504081040 | 61 | 257 | 0.0 | 0.0 | 0.00 | 0.00 | 0.00 | 66 | 1004.4 |
| 20260504080516 | 62 | 257 | 0.0 | 0.0 | 0.00 | 0.00 | 0.00 | 66 | 1004.5 |
| 20260504060103 | 66 | 257 | 0.0 | 2.0 | 0.00 | 0.00 | 0.00 | 60 | 1006.4 |
| 20260504050558 | 64 | 279 | 0.0 | 0.0 | 0.00 | 0.00 | 0.00 | 67 | 1006.8 |
| 20260504045509 | 65 | 279 | 0.0 | 0.0 | 0.00 | 0.00 | 0.00 | 66 | 1006.6 |
| 20260504045051 | 65 | 279 | 0.0 | 0.0 | 0.00 | 0.00 | 0.00 | 66 | 1006.5 |
| 20260504044526 | 66 | 279 | 0.0 | 0.0 | 0.00 | 0.00 | 0.00 | 66 | 1006.5 |
| 20260504044107 | 66 | 279 | 0.0 | 0.0 | 0.00 | 0.00 | 0.00 | 65 | 1006.5 |
| 20260504043539 | 66 | 279 | 0.0 | 0.0 | 0.00 | 0.00 | 0.00 | 65 | 1006.4 |
| 20260504043014 | 65 | 279 | 0.0 | 0.0 | 0.00 | 0.00 | 0.00 | 65 | 1006.4 |
| 20260504042554 | 65 | 279 | 0.0 | 0.0 | 0.00 | 0.00 | 0.00 | 65 | 1006.5 |
| 20260504042031 | 65 | 279 | 0.0 | 1.0 | 0.00 | 0.00 | 0.00 | 66 | 1006.3 |
| 20260504041506 | 65 | 158 | 0.0 | 1.0 | 0.00 | 0.00 | 0.00 | 67 | 1006.3 |
| 20260504041047 | 65 | 158 | 0.0 | 1.0 | 0.00 | 0.00 | 0.00 | 68 | 1006.5 |
| 20260504040523 | 64 | 158 | 0.0 | 0.0 | 0.00 | 0.00 | 0.00 | 68 | 1006.3 |
| 20260504040108 | 64 | 158 | 0.0 | 0.0 | 0.00 | 0.00 | 0.00 | 67 | 1006.5 |
| 20260504035540 | 64 | 158 | 0.0 | 0.0 | 0.00 | 0.00 | 0.00 | 68 | 1006.7 |
| 20260504035016 | 65 | 158 | 0.0 | 0.0 | 0.00 | 0.00 | 0.00 | 68 | 1006.8 |
| 20260504034555 | 65 | 158 | 0.0 | 0.0 | 0.00 | 0.00 | 0.00 | 68 | 1006.9 |
| 20260504034030 | 65 | 158 | 0.0 | 2.0 | 0.00 | 0.00 | 0.00 | 67 | 1006.9 |
| 20260504033512 | 65 | 158 | 0.0 | 2.0 | 0.00 | 0.00 | 0.00 | 68 | 1006.9 |
| 20260504033049 | 65 | 158 | 0.0 | 0.0 | 0.00 | 0.00 | 0.00 | 67 | 1007.0 |
| 20260504032522 | 65 | 158 | 0.0 | 0.0 | 0.00 | 0.00 | 0.00 | 66 | 1007.0 |
| 20260504032104 | 65 | 158 | 0.0 | 0.0 | 0.00 | 0.00 | 0.00 | 67 | 1007.0 |
| 20260504031558 | 65 | 158 | 0.0 | 0.0 | 0.00 | 0.00 | 0.00 | 65 | 1007.1 |
| 20260504031016 | 65 | 158 | 0.0 | 0.0 | 0.00 | 0.00 | 0.00 | 65 | 1007.1 |
| 20260504030556 | 65 | 158 | 0.0 | 0.0 | 0.00 | 0.00 | 0.00 | 66 | 1007.0 |
| 20260504030040 | 66 | 158 | 0.0 | 0.0 | 0.00 | 0.00 | 0.00 | 65 | 1007.1 |
| 20260504025509 | 66 | 158 | 0.0 | 0.0 | 0.00 | 0.00 | 0.00 | 64 | 1007.1 |
| 20260504025054 | 66 | 158 | 0.0 | 0.0 | 0.00 | 0.00 | 0.00 | 63 | 1007.1 |
| 20260504024526 | 66 | 158 | 0.0 | 0.0 | 0.00 | 0.00 | 0.00 | 62 | 1007.2 |
| 20260504024001 | 67 | 158 | 0.0 | 0.0 | 0.00 | 0.00 | 0.00 | 62 | 1007.1 |
| 20260504023544 | 67 | 158 | 0.0 | 0.0 | 0.00 | 0.00 | 0.00 | 61 | 1007.0 |
| 20260504023019 | 67 | 158 | 0.0 | 0.0 | 0.00 | 0.00 | 0.00 | 60 | 1007.0 |
| 20260504022600 | 67 | 158 | 0.0 | 0.0 | 0.00 | 0.00 | 0.00 | 59 | 1007.0 |
| 20260504022035 | 68 | 158 | 0.0 | 0.0 | 0.00 | 0.00 | 0.00 | 58 | 1007.1 |
| 20260504021512 | 68 | 158 | 0.0 | 0.0 | 0.00 | 0.00 | 0.00 | 57 | 1007.0 |
| 20260504021052 | 68 | 158 | 0.0 | 0.0 | 0.00 | 0.00 | 0.00 | 57 | 1007.1 |
| 20260504020528 | 69 | 158 | 0.0 | 0.0 | 0.00 | 0.00 | 0.00 | 56 | 1007.0 |
| 20260504020004 | 69 | 158 | 0.0 | 0.0 | 0.00 | 0.00 | 0.00 | 55 | 1007.1 |
| 20260504015546 | 69 | 158 | 0.0 | 0.0 | 0.00 | 0.00 | 0.00 | 55 | 1007.1 |
| 20260504015022 | 70 | 158 | 0.0 | 0.0 | 0.00 | 0.00 | 0.00 | 53 | 1007.0 |
| 20260504014602 | 70 | 158 | 0.0 | 0.0 | 0.00 | 0.00 | 0.00 | 53 | 1007.0 |
| 20260504014037 | 71 | 158 | 0.0 | 0.0 | 0.00 | 0.00 | 0.00 | 54 | 1007.1 |
| 20260504013513 | 71 | 158 | 0.0 | 0.0 | 0.00 | 0.00 | 0.00 | 52 | 1007.0 |
| 20260504013059 | 72 | 158 | 0.0 | 0.0 | 0.00 | 0.00 | 0.00 | 52 | 1007.0 |
| 20260504012530 | 72 | 158 | 0.0 | 0.0 | 0.00 | 0.00 | 0.00 | 50 | 1007.0 |
| 20260504012006 | 73 | 158 | 0.0 | 0.0 | 0.00 | 0.00 | 0.00 | 49 | 1006.9 |
| 20260504011553 | 73 | 158 | 0.0 | 0.0 | 0.00 | 0.00 | 0.00 | 48 | 1006.9 |
| 20260504011022 | 73 | 158 | 0.0 | 0.0 | 0.00 | 0.00 | 0.00 | 47 | 1006.9 |
| 20260504010604 | 74 | 158 | 0.0 | 0.0 | 0.00 | 0.00 | 0.00 | 46 | 1006.8 |
| 20260504010044 | 74 | 158 | 0.0 | 0.0 | 0.00 | 0.00 | 0.00 | 45 | 1006.9 |
| 20260504005516 | 74 | 158 | 0.0 | 0.0 | 0.00 | 0.00 | 0.00 | 43 | 1007.0 |
| 20260504005056 | 74 | 158 | 0.0 | 0.0 | 0.00 | 0.00 | 0.00 | 42 | 1007.0 |
| 20260504004532 | 75 | 158 | 0.0 | 0.0 | 0.00 | 0.00 | 0.00 | 39 | 1007.0 |
| 20260504004009 | 75 | 158 | 0.0 | 0.0 | 0.00 | 0.00 | 0.00 | 38 | 1007.0 |
| 20260504003551 | 76 | 158 | 0.0 | 0.0 | 0.00 | 0.00 | 0.00 | 36 | 1006.9 |
| 20260504003026 | 76 | 158 | 0.0 | 0.0 | 0.00 | 0.00 | 0.00 | 36 | 1007.0 |
| 20260504002504 | 77 | 158 | 0.0 | 0.0 | 0.00 | 0.00 | 0.00 | 34 | 1007.0 |
| 20260504002044 | 77 | 158 | 0.0 | 0.0 | 0.00 | 0.00 | 0.00 | 34 | 1007.0 |
| 20260504001520 | 78 | 248 | 0.0 | 0.0 | 0.00 | 0.00 | 0.00 | 33 | 1007.0 |
| 20260504001101 | 78 | 248 | 0.0 | 1.0 | 0.00 | 0.00 | 0.00 | 32 | 1007.0 |
| 20260504000538 | 79 | 248 | 0.0 | 1.0 | 0.00 | 0.00 | 0.00 | 30 | 1007.0 |
| 20260504000013 | 79 | 248 | 0.0 | 3.0 | 0.00 | 0.00 | 0.00 | 30 | 1007.0 |
| 20260503235553 | 79 | 248 | 0.0 | 4.0 | 0.00 | 0.00 | 0.00 | 30 | 1007.0 |
| 20260503235029 | 80 | 172 | 1.0 | 4.0 | 0.00 | 0.00 | 0.00 | 29 | 1007.0 |
| 20260503234508 | 80 | 259 | 0.0 | 4.0 | 0.00 | 0.00 | 0.00 | 28 | 1007.1 |
| 20260503234046 | 80 | 259 | 0.0 | 1.0 | 0.00 | 0.00 | 0.00 | 29 | 1007.2 |
| 20260503233521 | 80 | 258 | 0.0 | 1.0 | 0.00 | 0.00 | 0.00 | 28 | 1007.2 |
| 20260503233102 | 80 | 258 | 0.0 | 2.0 | 0.00 | 0.00 | 0.00 | 27 | 1007.2 |
| 20260503232535 | 81 | 268 | 0.0 | 3.0 | 0.00 | 0.00 | 0.00 | 26 | 1007.2 |
| 20260503232012 | 81 | 285 | 0.0 | 4.0 | 0.00 | 0.00 | 0.00 | 27 | 1007.2 |
| 20260503231555 | 81 | 298 | 0.0 | 4.0 | 0.00 | 0.00 | 0.00 | 27 | 1007.1 |
| 20260503231028 | 81 | 305 | 0.0 | 3.0 | 0.00 | 0.00 | 0.00 | 27 | 1007.2 |
| 20260503230505 | 81 | 314 | 0.0 | 3.0 | 0.00 | 0.00 | 0.00 | 30 | 1007.2 |
| 20260503230046 | 81 | 276 | 0.0 | 3.0 | 0.00 | 0.00 | 0.00 | 29 | 1007.2 |
| 20260503225524 | 81 | 290 | 0.0 | 3.0 | 0.00 | 0.00 | 0.00 | 30 | 1007.3 |
| 20260503225105 | 81 | 264 | 0.0 | 3.0 | 0.00 | 0.00 | 0.00 | 31 | 1007.3 |
| 20260503224542 | 81 | 276 | 0.0 | 3.0 | 0.00 | 0.00 | 0.00 | 31 | 1007.4 |
| 20260503224017 | 81 | 299 | 1.0 | 5.0 | 0.00 | 0.00 | 0.00 | 30 | 1007.5 |
| 20260503223557 | 82 | 273 | 1.0 | 5.0 | 0.00 | 0.00 | 0.00 | 31 | 1007.5 |
| 20260503223035 | 81 | 293 | 0.0 | 3.0 | 0.00 | 0.00 | 0.00 | 33 | 1007.6 |
| 20260503222510 | 81 | 279 | 0.0 | 3.0 | 0.00 | 0.00 | 0.00 | 34 | 1007.6 |
| 20260503222051 | 81 | 277 | 0.0 | 3.0 | 0.00 | 0.00 | 0.00 | 33 | 1007.7 |
| 20260503221525 | 81 | 301 | 0.0 | 3.0 | 0.00 | 0.00 | 0.00 | 34 | 1007.7 |
| 20260503221003 | 81 | 315 | 0.0 | 4.0 | 0.00 | 0.00 | 0.00 | 35 | 1007.8 |
| 20260503220542 | 80 | 259 | 0.0 | 4.0 | 0.00 | 0.00 | 0.00 | 38 | 1007.8 |
| 20260503220019 | 80 | 328 | 0.0 | 3.0 | 0.00 | 0.00 | 0.00 | 38 | 1007.8 |
| 20260503215559 | 80 | 328 | 0.0 | 3.0 | 0.00 | 0.00 | 0.00 | 38 | 1007.9 |
| 20260503215034 | 81 | 272 | 0.0 | 7.0 | 0.00 | 0.00 | 0.00 | 37 | 1008.0 |
| 20260503214513 | 81 | 297 | 1.0 | 7.0 | 0.00 | 0.00 | 0.00 | 36 | 1008.0 |
| 20260503214055 | 81 | 305 | 0.0 | 1.0 | 0.00 | 0.00 | 0.00 | 39 | 1008.1 |
| 20260503213528 | 81 | 305 | 0.0 | 2.0 | 0.00 | 0.00 | 0.00 | 39 | 1008.1 |
| 20260503213004 | 80 | 308 | 0.0 | 3.0 | 0.00 | 0.00 | 0.00 | 40 | 1008.2 |
| 20260503212546 | 80 | 316 | 0.0 | 3.0 | 0.00 | 0.00 | 0.00 | 39 | 1008.2 |
| 20260503212022 | 80 | 264 | 0.0 | 5.0 | 0.00 | 0.00 | 0.00 | 38 | 1008.3 |
| 20260503211622 | 80 | 260 | 0.0 | 5.0 | 0.00 | 0.00 | 0.00 | 39 | 1008.5 |
| 20260503211040 | 80 | 314 | 0.0 | 2.0 | 0.00 | 0.00 | 0.00 | 38 | 1008.5 |
| 20260503210513 | 80 | 274 | 0.0 | 2.0 | 0.00 | 0.00 | 0.00 | 39 | 1008.6 |
| 20260503210054 | 80 | 269 | 0.0 | 3.0 | 0.00 | 0.00 | 0.00 | 39 | 1008.7 |
| 20260503205529 | 79 | 309 | 0.0 | 3.0 | 0.00 | 0.00 | 0.00 | 39 | 1008.8 |
| 20260503205005 | 79 | 156 | 0.0 | 2.0 | 0.00 | 0.00 | 0.00 | 41 | 1008.9 |
| 20260503204600 | 79 | 185 | 0.0 | 6.0 | 0.00 | 0.00 | 0.00 | 41 | 1009.0 |
| 20260503204020 | 79 | 262 | 0.0 | 6.0 | 0.00 | 0.00 | 0.00 | 41 | 1009.1 |
| 20260503203601 | 79 | 264 | 1.0 | 3.0 | 0.00 | 0.00 | 0.00 | 39 | 1009.2 |
| 20260503203040 | 79 | 301 | 0.0 | 4.0 | 0.00 | 0.00 | 0.00 | 43 | 1009.3 |
| 20260503202514 | 79 | 282 | 0.0 | 4.0 | 0.00 | 0.00 | 0.00 | 40 | 1009.4 |
| 20260503202056 | 79 | 245 | 0.0 | 3.0 | 0.00 | 0.00 | 0.00 | 42 | 1009.3 |
| 20260503201530 | 78 | 316 | 1.0 | 5.0 | 0.00 | 0.00 | 0.00 | 40 | 1009.4 |
| 20260503201005 | 78 | 295 | 1.0 | 4.0 | 0.00 | 0.00 | 0.00 | 39 | 1009.5 |
| 20260503200546 | 78 | 311 | 1.0 | 4.0 | 0.00 | 0.00 | 0.00 | 39 | 1009.7 |
| 20260503200023 | 78 | 295 | 1.0 | 3.0 | 0.00 | 0.00 | 0.00 | 40 | 1009.7 |
| 20260503195604 | 78 | 182 | 0.0 | 2.0 | 0.00 | 0.00 | 0.00 | 41 | 1009.8 |
| 20260503195039 | 78 | 274 | 0.0 | 3.0 | 0.00 | 0.00 | 0.00 | 41 | 1009.8 |
| 20260503194521 | 78 | 309 | 1.0 | 3.0 | 0.00 | 0.00 | 0.00 | 40 | 1009.9 |
| 20260503194058 | 78 | 258 | 0.0 | 3.0 | 0.00 | 0.00 | 0.00 | 42 | 1010.0 |
| 20260503193532 | 77 | 288 | 0.0 | 3.0 | 0.00 | 0.00 | 0.00 | 40 | 1010.1 |
| 20260503193008 | 77 | 168 | 0.0 | 6.0 | 0.00 | 0.00 | 0.00 | 43 | 1010.1 |
| 20260503192549 | 77 | 308 | 0.0 | 6.0 | 0.00 | 0.00 | 0.00 | 42 | 1010.2 |
| 20260503192023 | 77 | 322 | 1.0 | 3.0 | 0.00 | 0.00 | 0.00 | 40 | 1010.3 |
| 20260503191607 | 77 | 301 | 0.0 | 2.0 | 0.00 | 0.00 | 0.00 | 41 | 1010.3 |
| 20260503191038 | 76 | 285 | 0.0 | 2.0 | 0.00 | 0.00 | 0.00 | 42 | 1010.4 |
| 20260503190516 | 76 | 245 | 0.0 | 2.0 | 0.00 | 0.00 | 0.00 | 42 | 1010.4 |
| 20260503190056 | 76 | 295 | 0.0 | 3.0 | 0.00 | 0.00 | 0.00 | 41 | 1010.5 |
| 20260503185531 | 76 | 297 | 1.0 | 3.0 | 0.00 | 0.00 | 0.00 | 41 | 1010.6 |
| 20260503185005 | 76 | 265 | 0.0 | 3.0 | 0.00 | 0.00 | 0.00 | 41 | 1010.6 |
| 20260503184604 | 76 | 264 | 1.0 | 4.0 | 0.00 | 0.00 | 0.00 | 42 | 1010.7 |